Regional Weather Roundup
Issued by NWS Albany, NY

Home | Current Version | Previous Version | Graphics & Text | Print | Product List | Glossary Off
Versions: 1 2 3 4 5 6 7 8 9 10 11 12 13 14 15 16 17 18 19 20 21 22 23 24 25 26 27

000
ASUS41 KALY 220510
RWRALY

NEW YORK STATE HOURLY WEATHER ROUNDUP
NATIONAL WEATHER SERVICE ALBANY NY
100 AM EDT SUN OCT 22 2017

NOTE: "FAIR" INDICATES FEW OR NO CLOUDS BELOW 12,000 FEET WITH NO
SIGNIFICANT WEATHER AND/OR NO OBSTRUCTIONS TO VISIBILITY.

NYZ032-033-038>043-046>054-057>066-NYZ062>081-082-084-220600-
EAST


CITY           SKY/WX    TMP DP  RH WIND       PRES   REMARKS
ALBANY         PTCLDY    47  44  90 CALM      30.34S
GLENS FALLS    CLEAR     41  39  93 CALM      30.33S
POUGHKEEPSIE   CLEAR     45  42  89 CALM      30.34S
NEWBURGH       CLEAR     52  45  76 CALM      30.36S
MONTGOMERY     CLEAR     46  43  89 SW5       30.35S
WHITE PLAINS   CLEAR     51  47  86 NW7       30.35S
ISLIP          CLEAR     53  52  96 CALM      30.36R
NEW YORK CITY  MOCLDY    64  47  53 CALM      30.35S
CENTRAL PARK   CLEAR     63  47  55 W3        30.38S
$$

NYZ005>009-017-018-044>046-055-056-220600-
CENTRAL


CITY           SKY/WX    TMP DP  RH WIND       PRES   REMARKS
FULTON         CLOUDY    51  46  83 SE3       30.28S
SYRACUSE       PTCLDY    44  43  96 CALM      30.28S
ROME           CLOUDY    45  42  89 CALM      30.33S
ELMIRA         PTCLDY    44  43  96 CALM      30.32S
BINGHAMTON     CLOUDY    55  38  52 S5        30.34F
MONTICELLO     CLEAR     47  42  83 N3        30.39S
$$

NYZ026>034-041>043-087-220600-
NORTH


CITY           SKY/WX    TMP DP  RH WIND       PRES   REMARKS
WATERTOWN      CLEAR     41  41 100 NE5       30.27S
FORT DRUM      NOT AVBL
OGDENSBURG     FAIR      44  43  95 CALM      30.28R
MASSENA        CLOUDY    49  47  93 CALM      30.29S
SARANAC LAKE   CLOUDY    35  35 100 CALM      30.33S
PLATTSBURGH    PTCLDY    48  46  93 CALM      30.30R
$$

NYZ001>004-010>016-019>021-085-220600-
WEST


CITY           SKY/WX    TMP DP  RH WIND       PRES   REMARKS
NIAGARA FALLS  CLOUDY    57  46  66 CALM      30.22S
BUFFALO        CLOUDY    58  44  60 S5        30.23F
DUNKIRK        CLEAR     62  46  55 S10       30.22F
JAMESTOWN      CLEAR     56  43  61 S9        30.28S
WELLSVILLE     CLEAR     60  40  47 S7        30.32F
ROCHESTER      PTCLDY    51  47  86 SW3       30.26S
PENN YAN       PTCLDY    60  43  53 S10       30.28F
$$

             KEY
       WCI = WIND CHILL INDEX
       VSB = VISIBILITY
       HX  = HEAT INDEX
$$




USA.gov is the U.S. government's official web portal to all federal, state and local government web resources and services.